| time (UTC) | temp F | wind direction | speed MPH | gust MPH | rain 1hr in | rain 24hr in | rain mn in | humidity % | barometer mb |
| 20260508191543 | 69 | 203 | 5.0 | 10.0 | 0.00 | 0.03 | 0.02 | 37 | 1015.1 |
| 20260508190036 | 68 | 297 | 4.0 | 10.0 | 0.00 | 0.03 | 0.02 | 37 | 1015.5 |
| 20260508184535 | 68 | 218 | 3.0 | 8.0 | 0.00 | 0.04 | 0.02 | 35 | 1015.7 |
| 20260508183034 | 67 | 254 | 4.0 | 15.0 | 0.00 | 0.04 | 0.02 | 38 | 1016.0 |
| 20260508181536 | 67 | 207 | 7.0 | 13.0 | 0.01 | 0.04 | 0.02 | 37 | 1016.2 |
| 20260508180031 | 66 | 215 | 9.0 | 12.0 | 0.01 | 0.04 | 0.02 | 37 | 1016.3 |
| 20260508174531 | 66 | 223 | 6.0 | 14.0 | 0.01 | 0.04 | 0.02 | 35 | 1016.8 |
| 20260508173028 | 66 | 200 | 6.0 | 13.0 | 0.01 | 0.04 | 0.02 | 39 | 1017.1 |
| 20260508171528 | 65 | 360 | 1.0 | 10.0 | 0.00 | 0.03 | 0.01 | 39 | 1017.2 |
| 20260508170024 | 65 | 279 | 2.0 | 11.0 | 0.00 | 0.03 | 0.01 | 42 | 1017.7 |
| 20260508164521 | 64 | 244 | 2.0 | 7.0 | 0.00 | 0.03 | 0.01 | 42 | 1017.8 |
| 20260508163019 | 63 | 340 | 3.0 | 10.0 | 0.00 | 0.03 | 0.01 | 42 | 1017.9 |
| 20260508161516 | 63 | 222 | 3.0 | 11.0 | 0.00 | 0.03 | 0.01 | 40 | 1018.2 |
| 20260508160016 | 63 | 252 | 4.0 | 10.0 | 0.00 | 0.03 | 0.01 | 41 | 1018.3 |
| 20260508154510 | 62 | 158 | 1.0 | 3.0 | 0.00 | 0.03 | 0.01 | 41 | 1018.4 |
| 20260508153005 | 61 | 73 | 2.0 | 8.0 | 0.00 | 0.03 | 0.01 | 40 | 1018.4 |
| 20260508151502 | 62 | 338 | 2.0 | 5.0 | 0.00 | 0.03 | 0.01 | 41 | 1018.4 |
| 20260508150057 | 60 | 42 | 2.0 | 5.0 | 0.00 | 0.03 | 0.01 | 40 | 1018.4 |
| 20260508144554 | 60 | 36 | 3.0 | 6.0 | 0.00 | 0.04 | 0.01 | 41 | 1018.5 |
| 20260508143056 | 60 | 360 | 2.0 | 5.0 | 0.00 | 0.04 | 0.01 | 47 | 1018.4 |
| 20260508141544 | 58 | 350 | 4.0 | 13.0 | 0.00 | 0.04 | 0.01 | 41 | 1018.3 |
| 20260508140042 | 58 | 343 | 4.0 | 12.0 | 0.00 | 0.04 | 0.01 | 44 | 1018.3 |
| 20260508134540 | 57 | 322 | 6.0 | 13.0 | 0.00 | 0.05 | 0.01 | 45 | 1018.4 |
| 20260508133035 | 56 | 343 | 4.0 | 12.0 | 0.00 | 0.05 | 0.01 | 51 | 1018.4 |
| 20260508131526 | 56 | 360 | 3.0 | 14.0 | 0.00 | 0.05 | 0.01 | 55 | 1018.3 |
| 20260508130030 | 55 | 330 | 2.0 | 10.0 | 0.00 | 0.05 | 0.01 | 59 | 1018.2 |
| 20260508124530 | 53 | 333 | 5.0 | 11.0 | 0.00 | 0.05 | 0.01 | 64 | 1018.2 |
| 20260508123025 | 52 | 333 | 6.0 | 13.0 | 0.00 | 0.05 | 0.01 | 66 | 1018.0 |
| 20260508121509 | 51 | 332 | 2.0 | 6.0 | 0.00 | 0.05 | 0.01 | 73 | 1018.0 |
| 20260508120004 | 49 | 333 | 3.0 | 6.0 | 0.00 | 0.05 | 0.01 | 71 | 1017.9 |
| 20260508114600 | 47 | 9 | 1.0 | 4.0 | 0.00 | 0.05 | 0.01 | 78 | 1017.6 |
| 20260508113104 | 46 | 333 | 3.0 | 6.0 | 0.00 | 0.05 | 0.01 | 77 | 1017.4 |
| 20260508111553 | 45 | 340 | 4.0 | 5.0 | 0.00 | 0.05 | 0.01 | 79 | 1017.3 |
| 20260508110047 | 43 | 19 | 2.0 | 3.0 | 0.00 | 0.05 | 0.01 | 85 | 1017.1 |
| 20260508104544 | 41 | 348 | 2.0 | 6.0 | 0.00 | 0.05 | 0.01 | 90 | 1016.9 |
| 20260508103044 | 41 | 22 | 0.0 | 2.0 | 0.01 | 0.05 | 0.01 | 91 | 1016.6 |
| 20260508101541 | 41 | 22 | 2.0 | 3.0 | 0.01 | 0.05 | 0.01 | 92 | 1016.3 |
| 20260508100034 | 40 | 22 | 2.0 | 4.0 | 0.01 | 0.05 | 0.01 | 94 | 1016.0 |
| 20260508094543 | 39 | 17 | 2.0 | 4.0 | 0.01 | 0.05 | 0.01 | 95 | 1015.8 |
| 20260508093030 | 40 | 23 | 0.0 | 1.0 | 0.00 | 0.04 | 0.00 | 95 | 1015.8 |
| 20260508091541 | 40 | 23 | 0.0 | 3.0 | 0.00 | 0.04 | 0.00 | 96 | 1015.6 |
| 20260508090031 | 40 | 23 | 1.0 | 2.0 | 0.00 | 0.04 | 0.00 | 96 | 1015.6 |
| 20260508084522 | 40 | 24 | 0.0 | 1.0 | 0.00 | 0.04 | 0.00 | 96 | 1015.4 |
| 20260508083020 | 40 | 24 | 0.0 | 0.0 | 0.00 | 0.04 | 0.00 | 96 | 1015.2 |
| 20260508081527 | 41 | 24 | 0.0 | 0.0 | 0.00 | 0.04 | 0.00 | 96 | 1015.2 |
| 20260508080021 | 41 | 24 | 0.0 | 2.0 | 0.00 | 0.04 | 0.00 | 96 | 1015.0 |
| 20260508074515 | 40 | 23 | 2.0 | 4.0 | 0.00 | 0.04 | 0.00 | 96 | 1014.8 |
| 20260508073012 | 41 | 355 | 0.0 | 3.0 | 0.00 | 0.04 | 0.00 | 95 | 1014.8 |
| 20260508071518 | 42 | 355 | 0.0 | 0.0 | 0.00 | 0.04 | 0.00 | 96 | 1014.8 |
| 20260508070008 | 42 | 355 | 0.0 | 1.0 | 0.00 | 0.04 | 0.00 | 96 | 1014.8 |
| 20260508064507 | 43 | 355 | 1.0 | 4.0 | 0.00 | 0.05 | 0.00 | 96 | 1014.8 |
| 20260508063004 | 43 | 9 | 3.0 | 5.0 | 0.00 | 0.05 | 0.00 | 96 | 1014.9 |
| 20260508061600 | 44 | 355 | 2.0 | 4.0 | 0.00 | 0.05 | 0.00 | 96 | 1014.7 |
| 20260508060057 | 45 | 153 | 2.0 | 3.0 | 0.00 | 0.05 | 0.00 | 96 | 1014.6 |
| 20260508054608 | 46 | 153 | 0.0 | 0.0 | 0.00 | 0.05 | 0.00 | 96 | 1014.5 |
| 20260508053054 | 46 | 153 | 0.0 | 0.0 | 0.00 | 0.05 | 0.00 | 96 | 1014.4 |
| 20260508051552 | 46 | 153 | 0.0 | 0.0 | 0.00 | 0.05 | 0.00 | 96 | 1014.2 |
| 20260508050054 | 45 | 153 | 0.0 | 0.0 | 0.00 | 0.05 | 0.00 | 96 | 1014.2 |
| 20260508044557 | 45 | 153 | 0.0 | 0.0 | 0.00 | 0.07 | 0.00 | 95 | 1014.1 |
| 20260508043048 | 45 | 153 | 0.0 | 0.0 | 0.00 | 0.07 | 0.00 | 95 | 1013.9 |
| 20260508041546 | 46 | 153 | 0.0 | 0.0 | 0.00 | 0.07 | 0.00 | 95 | 1013.6 |
| 20260508040043 | 46 | 153 | 0.0 | 0.0 | 0.00 | 0.07 | 0.00 | 95 | 1013.6 |
| 20260508034542 | 47 | 153 | 0.0 | 0.0 | 0.00 | 0.08 | 0.07 | 95 | 1013.4 |
| 20260508033058 | 47 | 153 | 0.0 | 0.0 | 0.00 | 0.08 | 0.07 | 95 | 1013.4 |
| 20260508031538 | 48 | 153 | 0.0 | 0.0 | 0.00 | 0.08 | 0.07 | 95 | 1013.5 |
| 20260508030035 | 49 | 153 | 0.0 | 0.0 | 0.00 | 0.08 | 0.07 | 95 | 1013.3 |
| 20260508024533 | 49 | 153 | 0.0 | 0.0 | 0.00 | 0.08 | 0.07 | 95 | 1013.0 |
| 20260508023036 | 50 | 153 | 0.0 | 0.0 | 0.00 | 0.08 | 0.07 | 95 | 1012.9 |
| 20260508021527 | 49 | 153 | 0.0 | 0.0 | 0.00 | 0.08 | 0.07 | 95 | 1012.6 |
| 20260508020026 | 50 | 153 | 0.0 | 0.0 | 0.00 | 0.08 | 0.07 | 94 | 1012.3 |
| 20260508014525 | 50 | 153 | 0.0 | 0.0 | 0.00 | 0.08 | 0.07 | 94 | 1012.1 |
| 20260508013022 | 51 | 153 | 0.0 | 0.0 | 0.00 | 0.08 | 0.07 | 93 | 1012.0 |
| 20260508011620 | 51 | 153 | 0.0 | 0.0 | 0.00 | 0.08 | 0.07 | 92 | 1011.7 |
| 20260508010022 | 52 | 153 | 0.0 | 1.0 | 0.00 | 0.08 | 0.07 | 92 | 1011.6 |
| 20260508004518 | 53 | 153 | 0.0 | 2.0 | 0.00 | 0.08 | 0.07 | 92 | 1011.5 |
| 20260508003018 | 53 | 153 | 0.0 | 1.0 | 0.00 | 0.08 | 0.07 | 91 | 1011.7 |
| 20260508001536 | 54 | 153 | 0.0 | 2.0 | 0.00 | 0.08 | 0.07 | 91 | 1011.5 |
| 20260508000017 | 54 | 153 | 0.0 | 2.0 | 0.00 | 0.08 | 0.07 | 90 | 1011.3 |
| 20260507234518 | 55 | 153 | 2.0 | 5.0 | 0.00 | 0.08 | 0.07 | 89 | 1011.1 |
| 20260507233023 | 55 | 150 | 0.0 | 2.0 | 0.00 | 0.08 | 0.07 | 89 | 1010.9 |
| 20260507231516 | 55 | 150 | 2.0 | 5.0 | 0.00 | 0.08 | 0.07 | 88 | 1010.7 |
| 20260507230025 | 55 | 161 | 2.0 | 5.0 | 0.00 | 0.08 | 0.07 | 88 | 1010.8 |
| 20260507224526 | 55 | 173 | 1.0 | 4.0 | 0.00 | 0.08 | 0.07 | 89 | 1010.6 |
| 20260507223015 | 55 | 168 | 1.0 | 7.0 | 0.00 | 0.08 | 0.07 | 89 | 1010.7 |
| 20260507221522 | 55 | 186 | 1.0 | 5.0 | 0.01 | 0.08 | 0.07 | 89 | 1010.6 |
| 20260507220015 | 54 | 173 | 1.0 | 5.0 | 0.01 | 0.08 | 0.07 | 89 | 1010.8 |
| 20260507214513 | 54 | 152 | 1.0 | 5.0 | 0.01 | 0.08 | 0.07 | 89 | 1010.8 |
| 20260507213015 | 54 | 152 | 0.0 | 5.0 | 0.01 | 0.08 | 0.07 | 89 | 1010.7 |
| 20260507211527 | 54 | 153 | 2.0 | 6.0 | 0.00 | 0.07 | 0.06 | 89 | 1010.5 |
| 20260507210014 | 54 | 142 | 1.0 | 5.0 | 0.00 | 0.07 | 0.06 | 92 | 1010.2 |
| 20260507204511 | 53 | 147 | 5.0 | 9.0 | 0.00 | 0.07 | 0.06 | 93 | 1010.2 |
| 20260507203010 | 52 | 141 | 4.0 | 8.0 | 0.00 | 0.07 | 0.06 | 94 | 1010.2 |
| 20260507201516 | 52 | 170 | 2.0 | 4.0 | 0.00 | 0.07 | 0.06 | 94 | 1011.1 |
| 20260507200009 | 52 | 109 | 2.0 | 7.0 | 0.00 | 0.07 | 0.06 | 94 | 1010.9 |
| 20260507194509 | 51 | 92 | 4.0 | 8.0 | 0.01 | 0.07 | 0.06 | 93 | 1010.8 |
| 20260507193008 | 52 | 79 | 3.0 | 10.0 | 0.01 | 0.07 | 0.06 | 92 | 1011.2 |